sat.trackr.live / text

‹ back to catalog

STARLINK-33810

NORAD 63660 · 2025-083AC

PAYLOAD ACTIVE UNKNOWN

§ Identity

Operator
Country
US
Launch date
2025-04-25
Launch site
AFETR
Launch vehicle
Mass (kg)
RCS (m²)

Purposes: comms

External: N2YO · Heavens-Above · Gunter

§ Orbital elements

Epoch: 2026-05-24T21:22:18.920928Z

Period
94.27 min
Inclination
43.0003°
Eccentricity
0.0001861
Mean motion
15.27605847 rev/d
Perigee alt
481.7 km
Apogee alt
484.2 km
Semi-major
6,861.1 km
B*
1.0840e-3
RAAN
294.6167°
Arg perigee
267.9850°
Mean anomaly
92.0788°
Rev number
6,175

§ Raw data

STARLINK-338101 63660U 25083AC  26144.89049677  .00029710  00000+0  10840-2 0  99992 63660  43.0003 294.6167 0001861 267.9850  92.0788 15.27605847 61759

JSON: /api/v1/satellites/63660 · /tle

For live sub-satellite position, see the globe view (requires WebGL).

§ Visibility from observer

Set your observer location to see the next 7 days of passes ≥ 10°. The values pass through the URL so the page stays shareable.

No JS? Fill the form by hand. The geolocation button needs JavaScript.